Location: Untermarchtal
(48.2403°N, 9.6117°E)
Time: 04:34:18
(UTC+02:00)

ISS - Pass Details

Date: 27 September 2020
Orbit: 418 x 420 km, 51.6° (Epoch: 20 October)

Event Time Altitude Azimuth Distance (km) Brightness Sun altitude
Rises 21:03:07 0° 287° (WNW) 2,369 1.7 -19.6°
Reaches altitude 10° 21:05:16 10° 293° (WNW) 1,504 0.3 -20.0°
Maximum altitude 21:08:34 52° 10° (N) 533 -3.3 -20.5°
Enters shadow 21:08:35 52° 12° (NNE) 533 -3.3 -20.5°
